Weather History for Ireland West Airport Knock, Ireland

Change the Weather History Date:

Sunday, November 4, 2012

  Actual Average Record
Temperature  
Mean Temperature 40 °F -  
Max Temperature 44 °F - - ()
Min Temperature 37 °F - - ()
Degree Days  
Heating Degree Days 26    
Moisture  
Dew Point 39 °F    
Average Humidity 94    
Maximum Humidity 100    
Minimum Humidity 87    
Precipitation  
Precipitation 0.01 in - - ()
Sea Level Pressure  
Sea Level Pressure 29.21 in    
Wind  
Wind Speed 8 mph ()    
Max Wind Speed 18 mph    
Max Gust Speed -    
Visibility 7.1 miles    
Events Rain    
T = Trace of Precipitation, MM = Missing Value Source: Averaged Metar Reports

Daily Weather History Graph

Daily Weather History Graph

Search for Another Location

Airport:

Trip Planner

Search our weather history database for the weather conditions in past years. The results will help you decide how hot, cold, wet, or windy it might be!

Date:

Astronomy

Nov. 04, 2012 Rise Set
Actual Time 7:42 AM GMT 4:54 PM GMT
Civil Twilight 7:04 AM GMT 5:32 PM GMT
Nautical Twilight 6:22 AM GMT 6:14 PM GMT
Astronomical Twilight 5:41 AM GMT 6:55 PM GMT
Moon 9:10 PM GMT (11/4) 12:29 PM GMT (11/4)
Length of Visible Light 10h 28m
Length of Day
9h 12m
Waning Gibbous, 74% of the Moon is Illuminated
Nov 4
Waning Gibbous
Nov 7
Last Quarter
Nov 13
New
Nov 20
First Quarter
Nov 28
Full

Hourly Weather History & Observations

Time (GMT) Temp. Windchill Dew Point Humidity Pressure Visibility Wind Dir Wind Speed Gust Speed Precip Events Conditions
12:00 AM 39 °F - 38 °F 94% 29.09 in - South 17.9 mph - -  
6:00 AM 37 °F - 37 °F 99% 29.11 in - ESE 6.7 mph - -  
6:30 AM 37.4 °F 30.8 °F 37.4 °F 100% 29.06 in 6.2 mi ESE 9.2 mph - N/A   Mostly Cloudy
7:00 AM 37.4 °F 31.4 °F 37.4 °F 100% 29.09 in 6.2 mi ESE 8.1 mph - N/A   Mostly Cloudy
7:30 AM 37.4 °F 32.1 °F 37.4 °F 100% 29.09 in 6.2 mi East 6.9 mph - N/A   Mostly Cloudy
8:00 AM 37.4 °F 32.1 °F 37.4 °F 100% 29.12 in 6.2 mi East 6.9 mph - N/A   Mostly Cloudy
8:30 AM 39.2 °F 35.0 °F 37.4 °F 93% 29.12 in 6.2 mi ENE 5.8 mph - N/A   Mostly Cloudy
9:00 AM 39.2 °F 35.0 °F 37.4 °F 93% 29.15 in 6.2 mi NE 5.8 mph - N/A   Mostly Cloudy
9:30 AM 39.2 °F 33.6 °F 37.4 °F 93% 29.15 in 6.2 mi East 8.1 mph - N/A   Scattered Clouds
10:00 AM 41.0 °F 36.4 °F 39.2 °F 93% 29.15 in 6.2 mi East 6.9 mph - N/A   Scattered Clouds
10:30 AM 41.0 °F 39.0 °F 39.2 °F 93% 29.18 in 6.2 mi NE 3.5 mph - N/A   Mostly Cloudy
11:00 AM 41.0 °F 37.1 °F 39.2 °F 93% 29.18 in 6.2 mi NNE 5.8 mph - N/A   Mostly Cloudy
11:30 AM 42.8 °F 38.6 °F 39.2 °F 87% 29.21 in 6.2 mi NE 6.9 mph - N/A   Mostly Cloudy
12:00 PM 42 °F - 40 °F 91% 29.25 in 14 mi NNE 6.7 mph - - Rain Light Rain Showers
12:00 PM 42.8 °F 39.3 °F 41.0 °F 93% 29.21 in 6.2 mi NNE 5.8 mph - N/A   Mostly Cloudy
12:30 PM 42.8 °F 39.3 °F 41.0 °F 93% 29.24 in 6.2 mi North 5.8 mph - N/A   Mostly Cloudy
1:00 PM 42.8 °F 38.6 °F 41.0 °F 93% 29.24 in 6.2 mi North 6.9 mph - N/A   Mostly Cloudy
1:30 PM 42.8 °F 37.5 °F 39.2 °F 87% 29.24 in 6.2 mi North 9.2 mph - N/A   Mostly Cloudy
2:00 PM 42.8 °F 38.0 °F 39.2 °F 87% 29.27 in 6.2 mi North 8.1 mph - N/A Rain Light Rain Showers
2:30 PM 42.8 °F 37.0 °F 39.2 °F 87% 29.27 in 6.2 mi NE 10.4 mph - N/A   Mostly Cloudy
3:00 PM 42.8 °F 38.0 °F 39.2 °F 87% 29.27 in 6.2 mi NNE 8.1 mph - N/A   Mostly Cloudy
3:30 PM 42.8 °F 38.0 °F 41.0 °F 93% 29.30 in 6.2 mi NNE 8.1 mph - N/A   Mostly Cloudy
4:00 PM 42.8 °F 37.5 °F 41.0 °F 93% 29.30 in 6.2 mi NE 9.2 mph - N/A   Scattered Clouds
4:30 PM 41.0 °F 35.2 °F 41.0 °F 100% 29.33 in 6.2 mi North 9.2 mph - N/A   Mostly Cloudy
5:00 PM 41.0 °F 37.1 °F 39.2 °F 93% 29.33 in 6.2 mi NNE 5.8 mph - N/A   Mostly Cloudy
6:00 PM 40 °F - 39 °F 97% 29.41 in 19 mi North 6.7 mph - -   Partly Cloudy